Showing default

SHIJIAN 6 05B (SJ-6 05B), 49962

Orbit data source: Space-Track

SHIJIAN 6 05B (SJ-6 05B), 49962 is a payload satellite owned by CASC (CN) in SSO that was launched on Fri, 10 Dec 2021 UTC via a CHANG ZHENG 4B launch vehicle from the Jiuquan Satellite Launch Center, China (JSC). Payload-class satellites include a variety of spacecraft equipped with specific instruments for various scientific and technological missions. These include communications satellites like Starlink; space stations such as the ISS; scientific satellites like the Hubble; Earth observation satellites from companies like Planet Labs, Umbra, and HawkEye 360; GPS; miniature CubeSats for education and research; and military/defense satellites.

Loading next visibility...
Identifier
49962, 2021-122B
Orbit
SSO
Country
Flag of CNCN / PRC
Related business
Manufacturer
SAST
Mission
Operational Defense Sigint
Bus & Motor
SJ6-5A, Unknown motor
Mass
~350 kg wet, ~350 kg dry
Launch date (UTC)
2021-12-10 (5 years ago)
Launch vehicle
CHANG ZHENG 4B
Launch site
Jiuquan Satellite Launch Center, China (JSC)
Object type
Payload
Rocket body
Debris
Shape & HBR
Box + 2 Pan, 2.0 m
Radar Cross Section
2.315 m², Large (>1 m²)

Expand to show TLE details & history
Last TLE update: 9 hours ago

TLE from 9 hours ago
0 SHIJIAN 6 05B (SJ-6 05B)
1 49962U 21122B   26228.73032741  .00001610  00000-0  96850-4 0  9995
2 49962  97.3848 207.3457 0001951 125.7763 234.3650 15.12211372258896
Epoch: 2026-08-16T17:31Z
TLE epoch observation values (Epoch: 2026-08-16T17:31:40.288Z)
Latitude
0.00004°
Longitude
-20.69483°
Altitude
533.323 km
Speed
7.596 km/s
True Right ascension
13h 49m 22s
True Declination
0° 00' 00"
Sunlit
Object was in daylight at epoch
Visualization orbit readout
Latitude
Unknown
Longitude
Unknown
Altitude
Unknown
Speed
Unknown
Apparent Right ascension
Unknown
Apparent Declination
Unknown
Sunlit
N/A
Visualization observer readout
Local Sidereal Time
17:02:27
Azimuth
Unknown
Elevation
Unknown
Doppler factor
Unknown
Orbital elements
Apogee altitude
527.78 km
Perigee altitude
525.086 km
Semi-major axis
6,904.57 km
Eccentricity
0.0002
Inclination
97.3848°
RAAN
207.3457°
Arg. of periapsis
125.7763°
True anomaly
234.34683°
Mean anomaly
234.365°
Eccentric anomaly
234.35592°
Mean motion
3.78302 °/min
Orbital period
95.16 mins
BSTAR
0.00009685
Loading maneuver chart data...
Computing Atmospheric mass density...
Loading historical data...
Loading historical data...
Loading historical data...
Loading historical data...
Loading historical data...
Loading historical data...
Loading historical data...

Documentation

Showing up to 5 results
|